Wind_Speed
23 29 35 42 33 30 31 28 26 13 13 11 11 13 16 12 12 13 20 24 24 26 26 27 28 28 29 30 27 26 25 27
16 33 38 31 17 22 23 18 14 15 12 9 10 9 8 10 12 22 22 24 23 24 24 28 29 29 25 25 29 24 24 22
25 30 23 16 14 8 15 13 16 14 8 6 5 6 10 15 21 23 21 23 23 21 25 27 27 29 31 24 27 28 33 34
26 25 35 18 15 8 18 17 12 9 8 10 11 14 15 15 18 22 21 23 24 26 26 28 31 33 36 36 32 33 35 37
10 9 5 13 16 19 16 12 8 6 9 11 11 13 13 13 22 21 22 24 21 21 22 23 24 26 26 27 30 32 32 35
8 13 12 16 13 10 9 5 5 5 4 8 11 14 16 17 18 18 16 17 20 22 25 27 30 30 31 32 33 35 36 37
12 13 12 12 12 9 7 7 3 3 4 9 11 14 14 11 11 15 18 22 25 28 31 32 33 34 35 36 37 38 40 41
10 10 10 7 5 3 1 5 2 3 8 13 15 9 9 13 16 20 24 26 28 29 30 32 34 36 37 38 39 41 43 45
7 6 5 3 1 2 2 4 4 11 10 10 7 10 13 17 21 24 26 28 29 31 33 35 36 36 37 39 41 43 46 47
4 2 2 4 6 5 5 4 10 13 9 6 10 13 17 20 24 28 30 32 33 34 36 38 39 39 41 42 44 46 48 48
6 8 8 10 10 9 8 10 12 8 8 11 16 19 22 25 29 33 35 37 39 40 42 43 43 43 45 46 48 50 48 44
10 13 12 13 14 13 11 8 6 8 12 16 20 23 27 31 34 37 40 41 44 46 47 47 48 48 48 48 49 49 45 43
13 11 11 11 10 7 6 7 10 14 19 23 27 30 33 36 39 42 44 47 48 50 50 50 49 49 48 50 48 44 44 47
13 12 11 5 6 8 11 13 17 22 25 29 32 34 38 42 45 48 49 50 52 53 53 51 50 49 50 50 44 42 45 48
14 13 12 4 7 11 15 18 23 27 31 34 37 40 44 47 50 51 54 54 56 57 54 52 51 51 52 47 47 48 51 55
12 13 13 9 11 15 19 24 28 31 35 39 42 45 47 49 53 55 56 57 57 54 53 53 53 55 51 49 51 55 58 61
10 10 12 13 18 22 25 29 33 36 39 42 46 48 51 53 56 57 56 56 54 53 53 54 55 53 53 54 57 60 64 69
7 6 12 16 21 27 32 36 39 42 46 48 51 54 56 57 57 57 57 55 55 56 56 58 56 55 57 61 63 64 71 71
11 13 18 22 27 32 36 40 43 48 51 53 55 57 58 59 57 58 59 55 58 59 60 59 59 62 63 64 66 70 76 72
19 22 24 28 33 36 39 42 47 51 53 54 56 58 58 58 59 61 58 57 60 62 61 61 63 65 66 68 70 76 77 76
Wind_Direction
238 243 218 202 221 245 232 219 227 192 151 176 193 207 225 237 264 295 277 281 292 303 307 312 314 305 309 309 307 289 289 289
228 190 208 199 203 213 207 200 167 158 159 173 210 240 265 285 282 265 287 293 308 313 307 307 306 307 312 305 301 306 299 296
240 247 225 230 226 196 205 164 131 144 161 195 235 278 270 257 265 277 296 311 317 313 314 311 303 302 304 289 289 293 295 294
237 245 242 234 236 236 110 113 132 139 178 207 231 241 261 291 300 301 304 312 308 311 313 305 303 299 298 297 294 298 296 291
183 213 104 80 74 74 98 109 119 175 224 251 277 286 297 293 319 306 313 315 316 319 319 315 310 306 306 302 296 296 297 293
26 68 82 99 101 92 94 136 171 234 250 304 292 292 315 305 313 316 326 330 328 326 317 314 313 312 309 307 305 304 305 301
128 130 132 123 124 132 143 157 207 242 252 314 313 311 312 317 324 325 325 324 324 321 319 319 317 314 311 309 307 307 305 303
136 138 116 103 111 139 207 236 330 259 296 316 314 321 327 319 324 329 326 326 321 317 316 314 312 310 310 310 306 304 304 303
128 101 94 112 253 315 348 222 275 315 308 310 308 316 318 323 322 320 320 315 314 313 314 314 312 311 311 310 309 307 305 303
114 113 0 344 327 328 310 294 306 317 305 305 310 310 313 313 313 313 312 312 313 315 316 314 313 313 313 310 308 308 309 307
354 353 354 345 342 335 327 311 313 312 304 301 307 312 308 307 309 310 309 311 314 314 313 313 313 311 309 309 309 311 309 305
348 353 352 344 327 322 313 298 290 285 288 303 305 307 310 310 310 311 314 314 313 314 313 312 311 309 309 311 311 310 307 305
345 346 342 330 316 321 299 300 305 301 304 308 309 310 312 313 314 315 316 315 315 313 313 313 309 309 310 312 310 308 308 306
338 333 340 329 326 319 310 316 309 306 308 308 310 313 314 316 317 317 316 314 315 315 313 311 309 309 311 310 306 304 304 304
333 325 330 314 310 305 306 309 306 307 308 309 312 314 316 317 316 314 313 314 314 313 313 311 309 309 309 305 302 301 300 303
325 312 306 288 290 296 304 307 305 305 308 311 313 314 314 312 310 311 313 314 313 313 311 310 310 311 309 304 301 302 301 302
308 298 295 291 290 296 299 298 299 305 308 309 309 310 310 308 310 312 313 312 312 311 309 309 309 307 304 302 304 306 309 308
294 292 282 280 289 294 295 301 306 310 311 311 311 310 309 310 311 312 312 309 309 308 308 309 307 303 302 305 308 309 310 310
300 295 291 296 295 296 301 304 309 310 309 309 309 308 309 310 311 311 310 307 305 305 306 305 305 303 303 305 305 307 309 312
306 303 302 300 301 301 304 303 308 308 306 306 307 308 309 309 310 309 308 306 306 306 304 302 304 305 304 304 302 304 307 310
Height
5803 5798 5797 5801 5797 5803 5807 5810 5812 5815 5819 5822 5823 5826 5828 5828 5829 5828 5829 5826 5825 5823 5820 5816 5813 5813 5807 5805 5804 5804 5802 5800
5808 5800 5802 5803 5802 5804 5808 5807 5810 5814 5817 5820 5823 5825 5826 5825 5824 5825 5824 5822 5820 5818 5815 5814 5811 5808 5805 5801 5799 5796 5796 5794
5808 5805 5802 5801 5799 5803 5803 5804 5808 5812 5816 5820 5822 5822 5822 5821 5821 5821 5820 5817 5815 5813 5810 5808 5805 5802 5799 5798 5795 5792 5789 5787
5803 5803 5800 5801 5801 5801 5803 5807 5811 5813 5816 5818 5818 5818 5819 5819 5818 5818 5814 5812 5810 5807 5804 5802 5799 5796 5793 5790 5788 5786 5784 5781
5802 5802 5802 5800 5800 5803 5806 5809 5811 5813 5816 5815 5816 5817 5816 5814 5813 5812 5809 5808 5805 5802 5799 5797 5794 5791 5788 5785 5782 5779 5776 5773
5797 5801 5803 5803 5806 5808 5809 5811 5810 5812 5812 5814 5815 5815 5813 5813 5810 5808 5806 5803 5801 5798 5796 5792 5790 5786 5782 5779 5777 5773 5769 5767
5800 5802 5804 5803 5805 5807 5808 5807 5809 5811 5812 5813 5811 5810 5809 5808 5806 5804 5802 5800 5797 5794 5790 5787 5783 5779 5776 5773 5768 5764 5760 5757
5803 5805 5803 5805 5804 5806 5806 5806 5809 5809 5809 5808 5806 5806 5805 5805 5803 5801 5799 5794 5792 5789 5785 5782 5778 5774 5770 5764 5760 5756 5752 5748
5802 5801 5804 5804 5806 5807 5805 5806 5806 5806 5806 5805 5806 5805 5804 5800 5798 5797 5794 5791 5788 5784 5779 5776 5771 5767 5761 5755 5750 5747 5743 5738
5801 5802 5803 5804 5804 5804 5803 5802 5802 5802 5802 5802 5804 5802 5798 5796 5794 5792 5789 5785 5782 5778 5772 5768 5762 5757 5751 5746 5742 5736 5730 5723
5800 5800 5801 5800 5799 5798 5799 5799 5799 5799 5800 5800 5800 5797 5794 5792 5789 5785 5782 5777 5771 5767 5762 5756 5751 5746 5741 5736 5729 5724 5718 5712
5797 5797 5798 5796 5797 5796 5796 5797 5799 5800 5799 5797 5795 5792 5787 5784 5781 5776 5770 5766 5761 5756 5750 5745 5741 5736 5729 5723 5716 5711 5707 5703
5794 5795 5796 5796 5795 5796 5796 5797 5797 5796 5792 5790 5787 5784 5780 5776 5772 5766 5761 5755 5750 5745 5739 5734 5728 5723 5718 5712 5705 5701 5697 5692
5793 5794 5794 5793 5793 5794 5794 5792 5790 5788 5786 5783 5780 5775 5770 5765 5760 5754 5749 5743 5738 5732 5728 5722 5717 5713 5707 5701 5696 5692 5686 5681
5790 5789 5789 5790 5791 5792 5790 5788 5786 5782 5779 5775 5770 5765 5759 5754 5749 5744 5739 5733 5727 5721 5717 5711 5706 5701 5696 5690 5685 5682 5675 5668
5787 5786 5786 5787 5787 5788 5786 5782 5779 5776 5771 5766 5760 5755 5751 5746 5741 5735 5728 5723 5716 5711 5705 5700 5695 5689 5684 5679 5673 5668 5661 5656
5784 5783 5782 5782 5782 5781 5780 5777 5774 5769 5764 5759 5753 5748 5743 5737 5730 5723 5718 5711 5705 5700 5695 5689 5682 5676 5670 5664 5658 5652 5646 5640
5781 5781 5781 5779 5776 5774 5771 5767 5763 5757 5751 5746 5741 5736 5730 5723 5718 5712 5706 5700 5695 5689 5683 5676 5669 5663 5657 5651 5643 5635 5627 5620
5777 5777 5775 5772 5769 5766 5762 5756 5751 5746 5741 5736 5731 5725 5719 5712 5707 5702 5696 5690 5684 5677 5670 5663 5656 5649 5641 5633 5625 5616 5607 5598
5769 5768 5767 5765 5761 5757 5753 5748 5744 5739 5733 5727 5721 5714 5709 5703 5697 5691 5686 5680 5673 5665 5657 5649 5642 5634 5626 5617 5607 5597 5587 5577